"Time","MENINDE"
"and",201.00
"Date","Volume (GL)"
"","Mean"
09:00:00 02/01/2000,1295.394
09:00:00 03/01/2000,1290.425
09:00:00 04/01/2000,1286.181
09:00:00 05/01/2000,1279.849
09:00:00 06/01/2000,1268.918
09:00:00 07/01/2000,1263.799
09:00:00 08/01/2000,1260.572
09:00:00 09/01/2000,1257.956
09:00:00 10/01/2000,1250.416
09:00:00 11/01/2000,1241.262
09:00:00 12/01/2000,1231.041
09:00:00 13/01/2000,1221.157
09:00:00 14/01/2000,1214.425
09:00:00 15/01/2000,1210.359
09:00:00 16/01/2000,1207.401
09:00:00 17/01/2000,1205.782
09:00:00 18/01/2000,1207.005
09:00:00 19/01/2000,1206.006
09:00:00 20/01/2000,1206.433
09:00:00 21/01/2000,1205.504
09:00:00 22/01/2000,1196.833
09:00:00 23/01/2000,1186.776
09:00:00 24/01/2000,1178.659
09:00:00 25/01/2000,1173.706
09:00:00 26/01/2000,1166.771
09:00:00 27/01/2000,1156.782
09:00:00 28/01/2000,1146.591
09:00:00 29/01/2000,1140.648
09:00:00 30/01/2000,1134.956
09:00:00 31/01/2000,1129.535
09:00:00 01/02/2000,1124.298
09:00:00 02/02/2000,1119.414
09:00:00 03/02/2000,1113.702
09:00:00 04/02/2000,1107.821
09:00:00 05/02/2000,1101.869
09:00:00 06/02/2000,1095.031
09:00:00 07/02/2000,1089.602
09:00:00 08/02/2000,1086.619
09:00:00 09/02/2000,1085.444
09:00:00 10/02/2000,1082.716
09:00:00 11/02/2000,1080.355
09:00:00 12/02/2000,1080.493
09:00:00 13/02/2000,1078.277
09:00:00 14/02/2000,1077.587
09:00:00 15/02/2000,1076.888
09:00:00 16/02/2000,1073.729
09:00:00 17/02/2000,1070.97
09:00:00 18/02/2000,1069.609
09:00:00 19/02/2000,1068.841
09:00:00 20/02/2000,1068.576
09:00:00 21/02/2000,1073.675
09:00:00 22/02/2000,1100.272
09:00:00 23/02/2000,1119.295
09:00:00 24/02/2000,1131.233
09:00:00 25/02/2000,1139.664
09:00:00 26/02/2000,1145.883
09:00:00 27/02/2000,1152.225
09:00:00 28/02/2000,1155.599
09:00:00 29/02/2000,1157.925
09:00:00 01/03/2000,1163.701
09:00:00 02/03/2000,1165.592
09:00:00 03/03/2000,1167.615
09:00:00 04/03/2000,1167.125
09:00:00 05/03/2000,1166.485
09:00:00 06/03/2000,1162.54
09:00:00 07/03/2000,1160.115
09:00:00 08/03/2000,1158.839
09:00:00 09/03/2000,1154.438
09:00:00 10/03/2000,1151.897
09:00:00 11/03/2000,1148.989
09:00:00 12/03/2000,1148.067
09:00:00 13/03/2000,1145.332
09:00:00 14/03/2000,1141.397
09:00:00 15/03/2000,1138.652
09:00:00 16/03/2000,1137.903
09:00:00 17/03/2000,1135.368
09:00:00 18/03/2000,1134.333
09:00:00 19/03/2000,1134.557
09:00:00 20/03/2000,1134.815
09:00:00 21/03/2000,1134.916
09:00:00 22/03/2000,1135.849
09:00:00 23/03/2000,1136.758
09:00:00 24/03/2000,1139.682
09:00:00 25/03/2000,1156.936
09:00:00 26/03/2000,1172.074
09:00:00 27/03/2000,1183.026
09:00:00 28/03/2000,1191.961
09:00:00 29/03/2000,1203.067
09:00:00 30/03/2000,1218.13
09:00:00 31/03/2000,1236.235
09:00:00 01/04/2000,1256.693
09:00:00 02/04/2000,1275.461
09:00:00 03/04/2000,1290.815
09:00:00 04/04/2000,1308.118
09:00:00 05/04/2000,1321.838
09:00:00 06/04/2000,1334.141
09:00:00 07/04/2000,1352.939
09:00:00 08/04/2000,1372.227
09:00:00 09/04/2000,1391.484
09:00:00 10/04/2000,1408.523
09:00:00 11/04/2000,1425.612
09:00:00 12/04/2000,1439.717
09:00:00 13/04/2000,1457.959
09:00:00 14/04/2000,1477.637
09:00:00 15/04/2000,1497.645
09:00:00 16/04/2000,1504.635
09:00:00 17/04/2000,1528.056
09:00:00 18/04/2000,1542.931
09:00:00 19/04/2000,1553.077
09:00:00 20/04/2000,1561.184
09:00:00 21/04/2000,1562.767
09:00:00 22/04/2000,1564.247
09:00:00 23/04/2000,1570.531
09:00:00 24/04/2000,1577.395
09:00:00 25/04/2000,1586.04
09:00:00 26/04/2000,1593.221
09:00:00 27/04/2000,1600.874
09:00:00 28/04/2000,1610.55
09:00:00 29/04/2000,1617.757
09:00:00 30/04/2000,1620.569
09:00:00 01/05/2000,1632.431
09:00:00 02/05/2000,1641.623
09:00:00 03/05/2000,1652.991
09:00:00 04/05/2000,1662.034
09:00:00 05/05/2000,1671.205
09:00:00 06/05/2000,1676.27
09:00:00 07/05/2000,1682.968
09:00:00 08/05/2000,1690.348
09:00:00 09/05/2000,1698.664
09:00:00 10/05/2000,1709.621
09:00:00 11/05/2000,1718.138
09:00:00 12/05/2000,1729.624
09:00:00 13/05/2000,1741.368
09:00:00 14/05/2000,1755.995
09:00:00 15/05/2000,1767.944
09:00:00 16/05/2000,1776.868
09:00:00 17/05/2000,1786.784
09:00:00 18/05/2000,1795.607
09:00:00 19/05/2000,1806.467
09:00:00 20/05/2000,1821.975
09:00:00 21/05/2000,1834.855
09:00:00 22/05/2000,1844.213
09:00:00 23/05/2000,1852.043
09:00:00 24/05/2000,1863.352
09:00:00 25/05/2000,1873.906
09:00:00 26/05/2000,1882.082
09:00:00 27/05/2000,1889.238
09:00:00 28/05/2000,1897.633
09:00:00 29/05/2000,1902.098
09:00:00 30/05/2000,1905.941
09:00:00 31/05/2000,1910.386
09:00:00 01/06/2000,1916.512
09:00:00 02/06/2000,1924.063
09:00:00 03/06/2000,1933.384
09:00:00 04/06/2000,1938.405
09:00:00 05/06/2000,1945.393
09:00:00 06/06/2000,1950.93
09:00:00 07/06/2000,1960.368
09:00:00 08/06/2000,1970.359
09:00:00 09/06/2000,1975.503
09:00:00 10/06/2000,1981.592
09:00:00 11/06/2000,1989.72
09:00:00 12/06/2000,1996.631
09:00:00 13/06/2000,2000.319
09:00:00 14/06/2000,2004.052
09:00:00 15/06/2000,2007.781
09:00:00 16/06/2000,2008.74
09:00:00 17/06/2000,2005.125
09:00:00 18/06/2000,2003.192
09:00:00 19/06/2000,2006.369
09:00:00 20/06/2000,2007.79
09:00:00 21/06/2000,2009.801
09:00:00 22/06/2000,2010.66
09:00:00 23/06/2000,2012.972
09:00:00 24/06/2000,2015.959
09:00:00 25/06/2000,2020.007
09:00:00 26/06/2000,2019.138
09:00:00 27/06/2000,2019.011
09:00:00 28/06/2000,2020.344
09:00:00 29/06/2000,2022.24
09:00:00 30/06/2000,2025.202
09:00:00 01/07/2000,2027.805
09:00:00 02/07/2000,2031.249
09:00:00 03/07/2000,2034.73
09:00:00 04/07/2000,2038.653
09:00:00 05/07/2000,2042.479
09:00:00 06/07/2000,2045.938
09:00:00 07/07/2000,2049.163
09:00:00 08/07/2000,2050.828
09:00:00 09/07/2000,2052.556
09:00:00 10/07/2000,2053.894
09:00:00 11/07/2000,2055.041
09:00:00 12/07/2000,2055.536
09:00:00 13/07/2000,2054.895
09:00:00 14/07/2000,2056.13
09:00:00 15/07/2000,2055.206
09:00:00 16/07/2000,2053.383
09:00:00 17/07/2000,2050.222
09:00:00 18/07/2000,2049.416
09:00:00 19/07/2000,2048.901
09:00:00 20/07/2000,2048.528
09:00:00 21/07/2000,2043.506
09:00:00 22/07/2000,2040.629
09:00:00 23/07/2000,2039.003
09:00:00 24/07/2000,2035.562
09:00:00 25/07/2000,2034.366
09:00:00 26/07/2000,2030.518
09:00:00 27/07/2000,2027.186
09:00:00 28/07/2000,2025.898
09:00:00 29/07/2000,2024.353
09:00:00 30/07/2000,2024.031
09:00:00 31/07/2000,2022.485
09:00:00 01/08/2000,2020.441
09:00:00 02/08/2000,2022.586
09:00:00 03/08/2000,2023.26
09:00:00 04/08/2000,2022.946
09:00:00 05/08/2000,2023.147
09:00:00 06/08/2000,2024.152
09:00:00 07/08/2000,2025.538
09:00:00 08/08/2000,2029.103
09:00:00 09/08/2000,2033.536
09:00:00 10/08/2000,2035.814
09:00:00 11/08/2000,2039.202
09:00:00 12/08/2000,2041.261
09:00:00 13/08/2000,2043.642
09:00:00 14/08/2000,2045.538
09:00:00 15/08/2000,2045.465
09:00:00 16/08/2000,2046.3
09:00:00 17/08/2000,2047.434
09:00:00 18/08/2000,2047.758
09:00:00 19/08/2000,2048.744
09:00:00 20/08/2000,2049.887
09:00:00 21/08/2000,2050.127
09:00:00 22/08/2000,2050.041
09:00:00 23/08/2000,2049.137
09:00:00 24/08/2000,2048.897
09:00:00 25/08/2000,2049.035
09:00:00 26/08/2000,2050.475
09:00:00 27/08/2000,2050.858
09:00:00 28/08/2000,2050.858
09:00:00 29/08/2000,2050.603
09:00:00 30/08/2000,2047.942
09:00:00 31/08/2000,2047.234
09:00:00 01/09/2000,2047.692
09:00:00 02/09/2000,2052.478
09:00:00 03/09/2000,2053.891
09:00:00 04/09/2000,2055.318
09:00:00 05/09/2000,2055.459
09:00:00 06/09/2000,2056.82
09:00:00 07/09/2000,2057.261
09:00:00 08/09/2000,2057.71
09:00:00 09/09/2000,2056.926
09:00:00 10/09/2000,2056.769
09:00:00 11/09/2000,2057.403
09:00:00 12/09/2000,2054.484
09:00:00 13/09/2000,2052.437
09:00:00 14/09/2000,2051.578
09:00:00 15/09/2000,2049.889
09:00:00 16/09/2000,2049.671
09:00:00 17/09/2000,2051.656
09:00:00 18/09/2000,2050.779
09:00:00 19/09/2000,2050.31
09:00:00 20/09/2000,2049.273
09:00:00 21/09/2000,2047.463
09:00:00 22/09/2000,2045.26
09:00:00 23/09/2000,2040.605
09:00:00 24/09/2000,2037.169
09:00:00 25/09/2000,2032.487
09:00:00 26/09/2000,2030.507
09:00:00 27/09/2000,2029.997
09:00:00 28/09/2000,2029.155
09:00:00 29/09/2000,2029.335
09:00:00 30/09/2000,2029.279
09:00:00 01/10/2000,2027.235
09:00:00 02/10/2000,2023.273
09:00:00 03/10/2000,2021.802
09:00:00 04/10/2000,2016.126
09:00:00 05/10/2000,2014.065
09:00:00 06/10/2000,2013.588
09:00:00 07/10/2000,2013.047
09:00:00 08/10/2000,2011.533
09:00:00 09/10/2000,2013.426
09:00:00 10/10/2000,2013.158
09:00:00 11/10/2000,2011.828
09:00:00 12/10/2000,2008.585
09:00:00 13/10/2000,2006.75
09:00:00 14/10/2000,2003.766
09:00:00 15/10/2000,1999.172
09:00:00 16/10/2000,1995.724
09:00:00 17/10/2000,1996.666
09:00:00 18/10/2000,1997.481
09:00:00 19/10/2000,1995.712
09:00:00 20/10/2000,1993.572
09:00:00 21/10/2000,1991.584
09:00:00 22/10/2000,1990.411
09:00:00 23/10/2000,1990.124
09:00:00 24/10/2000,1991.555
09:00:00 25/10/2000,1994.018
09:00:00 26/10/2000,1994.765
09:00:00 27/10/2000,1996.402
09:00:00 28/10/2000,1993.903
09:00:00 29/10/2000,1991.417
09:00:00 30/10/2000,1988.291
09:00:00 31/10/2000,1985.775
09:00:00 01/11/2000,1986.762
09:00:00 02/11/2000,1986.324
09:00:00 03/11/2000,1984.574
09:00:00 04/11/2000,1982.804
09:00:00 05/11/2000,1980.865
09:00:00 06/11/2000,1978.426
09:00:00 07/11/2000,1976.555
09:00:00 08/11/2000,1974.927
09:00:00 09/11/2000,1973.788
09:00:00 10/11/2000,1972.765
09:00:00 11/11/2000,1976.364
09:00:00 12/11/2000,1976.21
09:00:00 13/11/2000,1975.766
09:00:00 14/11/2000,1974.422
09:00:00 15/11/2000,1972.735
09:00:00 16/11/2000,1970.975
09:00:00 17/11/2000,1970.593
09:00:00 18/11/2000,1970.578
09:00:00 19/11/2000,1970.36
09:00:00 20/11/2000,1969.686
09:00:00 21/11/2000,1970.04
09:00:00 22/11/2000,1970.234
09:00:00 23/11/2000,1970.566
09:00:00 24/11/2000,1968.333
09:00:00 25/11/2000,1964.721
09:00:00 26/11/2000,1959.75
09:00:00 27/11/2000,1956.393
09:00:00 28/11/2000,1950.58
09:00:00 29/11/2000,1943.089
09:00:00 30/11/2000,1934.178
09:00:00 01/12/2000,1918.12
09:00:00 02/12/2000,1903.154
09:00:00 03/12/2000,1890.486
09:00:00 04/12/2000,1874.755
09:00:00 05/12/2000,1857.878
09:00:00 06/12/2000,1840.977
09:00:00 07/12/2000,1821.872
09:00:00 08/12/2000,1800.909
09:00:00 09/12/2000,1783.264
09:00:00 10/12/2000,1770.898
09:00:00 11/12/2000,1760.588
09:00:00 12/12/2000,1748.648
09:00:00 13/12/2000,1737.187
09:00:00 14/12/2000,1725.569
09:00:00 15/12/2000,1715.284
09:00:00 16/12/2000,1704.264
09:00:00 17/12/2000,1697.337
09:00:00 18/12/2000,1691.075
09:00:00 19/12/2000,1683.841
09:00:00 20/12/2000,1678.433
09:00:00 21/12/2000,1675.308
09:00:00 22/12/2000,1674.38
09:00:00 23/12/2000,1677.359
09:00:00 24/12/2000,1680.943
09:00:00 25/12/2000,1681.788
09:00:00 26/12/2000,1684.598
09:00:00 27/12/2000,1683.331
09:00:00 28/12/2000,1686.002
09:00:00 29/12/2000,1683.126
09:00:00 30/12/2000,1685.693
09:00:00 31/12/2000,1693.312
09:00:00 01/01/2001,1705.531
09:00:00 02/01/2001,1713.321
09:00:00 03/01/2001,1721.828
09:00:00 04/01/2001,1730.958
09:00:00 05/01/2001,1747.586
09:00:00 06/01/2001,1757.187
09:00:00 07/01/2001,1765.932
09:00:00 08/01/2001,1776.75
09:00:00 09/01/2001,1786.644
09:00:00 10/01/2001,1784.996
09:00:00 11/01/2001,1799.736
09:00:00 12/01/2001,1805.816
09:00:00 13/01/2001,1813.247
09:00:00 14/01/2001,1817.06
09:00:00 15/01/2001,1829.412
09:00:00 16/01/2001,1830.689
09:00:00 17/01/2001,1830.225
09:00:00 18/01/2001,1837.513
09:00:00 19/01/2001,1841.448
09:00:00 20/01/2001,1847.058
09:00:00 21/01/2001,1858.949
09:00:00 22/01/2001,1869.595
09:00:00 23/01/2001,1881.939
09:00:00 24/01/2001,1895.554
09:00:00 25/01/2001,1903.124
09:00:00 26/01/2001,1914.145
09:00:00 27/01/2001,1929.216
09:00:00 28/01/2001,1940.978
09:00:00 29/01/2001,1949.557
09:00:00 30/01/2001,1960.191
09:00:00 31/01/2001,1962.4
09:00:00 01/02/2001,1973.105
09:00:00 02/02/2001,1974.887
09:00:00 03/02/2001,1976.987
09:00:00 04/02/2001,1976.248
09:00:00 05/02/2001,1978.466
09:00:00 06/02/2001,1975.012
09:00:00 07/02/2001,1970.406
09:00:00 08/02/2001,1967.586
09:00:00 09/02/2001,1960.32
09:00:00 10/02/2001,1952.335
09:00:00 11/02/2001,1943.163
09:00:00 12/02/2001,1934.675
09:00:00 13/02/2001,1928.596
09:00:00 14/02/2001,1927.337
09:00:00 15/02/2001,1915.834
09:00:00 16/02/2001,1903.934
09:00:00 17/02/2001,1892.444
09:00:00 18/02/2001,1881.98
09:00:00 19/02/2001,1872.183
09:00:00 20/02/2001,1860.058
09:00:00 21/02/2001,1844.263
09:00:00 22/02/2001,1833.809
09:00:00 23/02/2001,1829.049
09:00:00 24/02/2001,1824.371
09:00:00 25/02/2001,1819.642
09:00:00 26/02/2001,1817.247
09:00:00 27/02/2001,1813.187
09:00:00 28/02/2001,1811.683
09:00:00 01/03/2001,1811.879
09:00:00 02/03/2001,1810.578
09:00:00 03/03/2001,1812.442
09:00:00 04/03/2001,1820.663
09:00:00 05/03/2001,1827.063
09:00:00 06/03/2001,1830.58
09:00:00 07/03/2001,1834.836
09:00:00 08/03/2001,1845.778
09:00:00 09/03/2001,1849.935
09:00:00 10/03/2001,1854.45
09:00:00 11/03/2001,1859.736
09:00:00 12/03/2001,1861.607
09:00:00 13/03/2001,1864.998
09:00:00 14/03/2001,1868.185
09:00:00 15/03/2001,1871.645
09:00:00 16/03/2001,1875.607
09:00:00 17/03/2001,1883.394
09:00:00 18/03/2001,1892.751
09:00:00 19/03/2001,1901.944
09:00:00 20/03/2001,1907.699
09:00:00 21/03/2001,1914.294
09:00:00 22/03/2001,1922.184
09:00:00 23/03/2001,1932.988
09:00:00 24/03/2001,1939.85
09:00:00 25/03/2001,1947.491
09:00:00 26/03/2001,1956.339
09:00:00 27/03/2001,1973.987
09:00:00 28/03/2001,1986.235
09:00:00 29/03/2001,1997.2
09:00:00 30/03/2001,2008.379
09:00:00 31/03/2001,2016.64
09:00:00 01/04/2001,2021.908
09:00:00 02/04/2001,2023.919
09:00:00 03/04/2001,2024.053
09:00:00 04/04/2001,2026.565
09:00:00 05/04/2001,2024.588
09:00:00 06/04/2001,2020.425
09:00:00 07/04/2001,2014.065
09:00:00 08/04/2001,2011.933
09:00:00 09/04/2001,2007.238
09:00:00 10/04/2001,2003.506
09:00:00 11/04/2001,1999.407
09:00:00 12/04/2001,1993.975
09:00:00 13/04/2001,1989.945
09:00:00 14/04/2001,1988.924
09:00:00 15/04/2001,1987.943
09:00:00 16/04/2001,1985.285
09:00:00 17/04/2001,1980.953
09:00:00 18/04/2001,1977.747
09:00:00 19/04/2001,1975.616
09:00:00 20/04/2001,1973.899
09:00:00 21/04/2001,1974.122
09:00:00 22/04/2001,1973.128
09:00:00 23/04/2001,1973.581
09:00:00 24/04/2001,1974.562
09:00:00 25/04/2001,1975.545
09:00:00 26/04/2001,1976.534
09:00:00 27/04/2001,1977.455
09:00:00 28/04/2001,1977.719
09:00:00 29/04/2001,1978.725
09:00:00 30/04/2001,1981.916
09:00:00 01/05/2001,1984.35
09:00:00 02/05/2001,1986.916
09:00:00 03/05/2001,1989.105
09:00:00 04/05/2001,1991.35
09:00:00 05/05/2001,1995.428
09:00:00 06/05/2001,1999.272
09:00:00 07/05/2001,2003.016
09:00:00 08/05/2001,2005.731
09:00:00 09/05/2001,2010.891
09:00:00 10/05/2001,2017.62
09:00:00 11/05/2001,2019.762
09:00:00 12/05/2001,2021.158
09:00:00 13/05/2001,2020.849
09:00:00 14/05/2001,2022.053
09:00:00 15/05/2001,2023.328
09:00:00 16/05/2001,2024.542
09:00:00 17/05/2001,2023.807
09:00:00 18/05/2001,2021.509
09:00:00 19/05/2001,2021.531
09:00:00 20/05/2001,2022.111
09:00:00 21/05/2001,2021.209
09:00:00 22/05/2001,2020.889
09:00:00 23/05/2001,2019.96
09:00:00 24/05/2001,2018.167
09:00:00 25/05/2001,2017.746
09:00:00 26/05/2001,2017.671
09:00:00 27/05/2001,2016.737
09:00:00 28/05/2001,2014.923
09:00:00 29/05/2001,2014.261
09:00:00 30/05/2001,2014.249
09:00:00 31/05/2001,2014.788
09:00:00 01/06/2001,2014.931
09:00:00 02/06/2001,2015.034
09:00:00 03/06/2001,2016.114
09:00:00 04/06/2001,2016.401
09:00:00 05/06/2001,2016.124
09:00:00 06/06/2001,2013.227
09:00:00 07/06/2001,2012.456
09:00:00 08/06/2001,2012.456
09:00:00 09/06/2001,2012.762
09:00:00 10/06/2001,2016.218
09:00:00 11/06/2001,2019.58
09:00:00 12/06/2001,2019.087
09:00:00 13/06/2001,2022.72
09:00:00 14/06/2001,2024.559
09:00:00 15/06/2001,2024.818
09:00:00 16/06/2001,2025.358
09:00:00 17/06/2001,2025.502
09:00:00 18/06/2001,2025.681
09:00:00 19/06/2001,2027.494
09:00:00 20/06/2001,2027.524
09:00:00 21/06/2001,2028.19
09:00:00 22/06/2001,2028.723
09:00:00 23/06/2001,2029.581
09:00:00 24/06/2001,2029.816
09:00:00 25/06/2001,2030.072
09:00:00 26/06/2001,2030.113
09:00:00 27/06/2001,2029.806
09:00:00 28/06/2001,2029.415
09:00:00 29/06/2001,2028.883
09:00:00 30/06/2001,2029.56
09:00:00 01/07/2001,2029.778
09:00:00 02/07/2001,2029.778
09:00:00 03/07/2001,2029.778
09:00:00 04/07/2001,2029.726
09:00:00 05/07/2001,2029.293
09:00:00 06/07/2001,2030.26
09:00:00 07/07/2001,2030.556
09:00:00 08/07/2001,2030.504
09:00:00 09/07/2001,2029.965
09:00:00 10/07/2001,2029.901
09:00:00 11/07/2001,2030.812
09:00:00 12/07/2001,2031.867
09:00:00 13/07/2001,2032.037
09:00:00 14/07/2001,2031.447
09:00:00 15/07/2001,2030.764
09:00:00 16/07/2001,2030.724
09:00:00 17/07/2001,2031.699
09:00:00 18/07/2001,2030.908
09:00:00 19/07/2001,2030.621
09:00:00 20/07/2001,2030.621
09:00:00 21/07/2001,2030.904
09:00:00 22/07/2001,2033.865
09:00:00 23/07/2001,2034.652
09:00:00 24/07/2001,2034.652
09:00:00 25/07/2001,2034.6
09:00:00 26/07/2001,2034.061
09:00:00 27/07/2001,2033.918
09:00:00 28/07/2001,2033.735
09:00:00 29/07/2001,2031.797
09:00:00 30/07/2001,2031.128
09:00:00 31/07/2001,2031.622
09:00:00 01/08/2001,2028.881
09:00:00 02/08/2001,2027.89
09:00:00 03/08/2001,2025.849
09:00:00 04/08/2001,2026.149
09:00:00 05/08/2001,2026.454
09:00:00 06/08/2001,2024.952
09:00:00 07/08/2001,2025.061
09:00:00 08/08/2001,2025.152
09:00:00 09/08/2001,2024.563
09:00:00 10/08/2001,2023.496
09:00:00 11/08/2001,2019.37
09:00:00 12/08/2001,2018.755
09:00:00 13/08/2001,2017.861
09:00:00 14/08/2001,2015.467
09:00:00 15/08/2001,2014.366
09:00:00 16/08/2001,2014.013
09:00:00 17/08/2001,2011.581
09:00:00 18/08/2001,2008.409
09:00:00 19/08/2001,2006.29
09:00:00 20/08/2001,2004.474
09:00:00 21/08/2001,2002.587
09:00:00 22/08/2001,2000.062
09:00:00 23/08/2001,1998.683
09:00:00 24/08/2001,1995.507
09:00:00 25/08/2001,1993.208
09:00:00 26/08/2001,1990.612
09:00:00 27/08/2001,1988.575
09:00:00 28/08/2001,1986.299
09:00:00 29/08/2001,1982.477
09:00:00 30/08/2001,1979.088
09:00:00 31/08/2001,1973.915
09:00:00 01/09/2001,1971.062
09:00:00 02/09/2001,1969.148
09:00:00 03/09/2001,1965.927
09:00:00 04/09/2001,1964.894
09:00:00 05/09/2001,1964.08
09:00:00 06/09/2001,1960.771
09:00:00 07/09/2001,1954.284
09:00:00 08/09/2001,1949.434
09:00:00 09/09/2001,1942.772
09:00:00 10/09/2001,1936.283
09:00:00 11/09/2001,1926.358
09:00:00 12/09/2001,1921.163
09:00:00 13/09/2001,1919.013
09:00:00 14/09/2001,1913.451
09:00:00 15/09/2001,1907.523
09:00:00 16/09/2001,1900.087
09:00:00 17/09/2001,1890.45
09:00:00 18/09/2001,1881.669
09:00:00 19/09/2001,1872.766
09:00:00 20/09/2001,1865.566
09:00:00 21/09/2001,1859.658
09:00:00 22/09/2001,1851.706
09:00:00 23/09/2001,1842.292
09:00:00 24/09/2001,1835.574
09:00:00 25/09/2001,1829.297
09:00:00 26/09/2001,1819.149
09:00:00 27/09/2001,1807.623
09:00:00 28/09/2001,1798.423
09:00:00 29/09/2001,1787.324
09:00:00 30/09/2001,1776.202
09:00:00 01/10/2001,1765.428
09:00:00 02/10/2001,1752.453
09:00:00 03/10/2001,1741.716
09:00:00 04/10/2001,1734.026
09:00:00 05/10/2001,1723.572
09:00:00 06/10/2001,1708.321
09:00:00 07/10/2001,1695.491
09:00:00 08/10/2001,1681.931
09:00:00 09/10/2001,1670.387
09:00:00 10/10/2001,1659.306
09:00:00 11/10/2001,1649.746
09:00:00 12/10/2001,1631.796
09:00:00 13/10/2001,1624.105
09:00:00 14/10/2001,1625.09
09:00:00 15/10/2001,1619.098
09:00:00 16/10/2001,1611.66
09:00:00 17/10/2001,1602.141
09:00:00 18/10/2001,1588.016
09:00:00 19/10/2001,1577.525
09:00:00 20/10/2001,1564.515
09:00:00 21/10/2001,1549.663
09:00:00 22/10/2001,1543.629
09:00:00 23/10/2001,1538.564
09:00:00 24/10/2001,1532.316
09:00:00 25/10/2001,1525.749
09:00:00 26/10/2001,1513.746
09:00:00 27/10/2001,1505.713
09:00:00 28/10/2001,1498.476
09:00:00 29/10/2001,1490.146
09:00:00 30/10/2001,1480.996
09:00:00 31/10/2001,1470.826
09:00:00 01/11/2001,1460.838
09:00:00 02/11/2001,1444.44
09:00:00 03/11/2001,1436.325
09:00:00 04/11/2001,1431.253
09:00:00 05/11/2001,1424.104
09:00:00 06/11/2001,1416.591
09:00:00 07/11/2001,1410.106
09:00:00 08/11/2001,1402.62
09:00:00 09/11/2001,1395.472
09:00:00 10/11/2001,1388.831
09:00:00 11/11/2001,1379.799
09:00:00 12/11/2001,1370.154
09:00:00 13/11/2001,1360.734
09:00:00 14/11/2001,1351.299
09:00:00 15/11/2001,1345.984
09:00:00 16/11/2001,1341.111
09:00:00 17/11/2001,1333.892
09:00:00 18/11/2001,1324.075
09:00:00 19/11/2001,1313.422
09:00:00 20/11/2001,1304.348
09:00:00 21/11/2001,1292.866
09:00:00 22/11/2001,1283.985
09:00:00 23/11/2001,1277.712
09:00:00 24/11/2001,1268.514
09:00:00 25/11/2001,1254.003
09:00:00 26/11/2001,1240.921
09:00:00 27/11/2001,1230.342
09:00:00 28/11/2001,1220.55
09:00:00 29/11/2001,1208.881
09:00:00 30/11/2001,1196.802
09:00:00 01/12/2001,1188.31
09:00:00 02/12/2001,1179.863
09:00:00 03/12/2001,1171.665
09:00:00 04/12/2001,1163.605
09:00:00 05/12/2001,1155.113
09:00:00 06/12/2001,1147.789
09:00:00 07/12/2001,1143.181
09:00:00 08/12/2001,1129.122
09:00:00 09/12/2001,1117.462
09:00:00 10/12/2001,1105.559
09:00:00 11/12/2001,1091.1
09:00:00 12/12/2001,1080.946
09:00:00 13/12/2001,1069.97
09:00:00 14/12/2001,1052.047
09:00:00 15/12/2001,1040.358
09:00:00 16/12/2001,1030.719
09:00:00 17/12/2001,1017.617
09:00:00 18/12/2001,1005.794
09:00:00 19/12/2001,996.29
09:00:00 20/12/2001,991.076
09:00:00 21/12/2001,981.29
09:00:00 22/12/2001,973.06
09:00:00 23/12/2001,962.91
09:00:00 24/12/2001,953.293
09:00:00 25/12/2001,941.673
09:00:00 26/12/2001,927.108
09:00:00 27/12/2001,914.342
09:00:00 28/12/2001,904.863
09:00:00 29/12/2001,896.612
09:00:00 30/12/2001,883.005
09:00:00 31/12/2001,872.15
09:00:00 01/01/2002,866.852
09:00:00 02/01/2002,860.028
09:00:00 03/01/2002,847.603
09:00:00 04/01/2002,830.121
09:00:00 05/01/2002,823.513
09:00:00 06/01/2002,815.468
09:00:00 07/01/2002,796.789
09:00:00 08/01/2002,779.138
09:00:00 09/01/2002,763.225
09:00:00 10/01/2002,754.72
09:00:00 11/01/2002,747.975
09:00:00 12/01/2002,739.094
09:00:00 13/01/2002,731.452
09:00:00 14/01/2002,725.581
09:00:00 15/01/2002,718.282
09:00:00 16/01/2002,711.01
09:00:00 17/01/2002,706.467
09:00:00 18/01/2002,701.002
09:00:00 19/01/2002,696.699
09:00:00 20/01/2002,690.944
09:00:00 21/01/2002,688.244
09:00:00 22/01/2002,692.295
09:00:00 23/01/2002,691.103
09:00:00 24/01/2002,688.052
09:00:00 25/01/2002,684.915
09:00:00 26/01/2002,681.1
09:00:00 27/01/2002,679.159
09:00:00 28/01/2002,674.962
09:00:00 29/01/2002,670.781
09:00:00 30/01/2002,668.273
09:00:00 31/01/2002,666.654
09:00:00 01/02/2002,661.609
09:00:00 02/02/2002,657.723
09:00:00 03/02/2002,650.746
09:00:00 04/02/2002,645.196
09:00:00 05/02/2002,637.88
09:00:00 06/02/2002,630.074
09:00:00 07/02/2002,623.855
09:00:00 08/02/2002,617.31
09:00:00 09/02/2002,607.448
09:00:00 10/02/2002,600.359
09:00:00 11/02/2002,596.895
09:00:00 12/02/2002,591.995
09:00:00 13/02/2002,587.842
09:00:00 14/02/2002,583.127
09:00:00 15/02/2002,578.024
09:00:00 16/02/2002,577.765
09:00:00 17/02/2002,574.289
09:00:00 18/02/2002,572.732
09:00:00 19/02/2002,568.738
09:00:00 20/02/2002,563.654
09:00:00 21/02/2002,560.0
09:00:00 22/02/2002,557.635
09:00:00 23/02/2002,549.257
09:00:00 24/02/2002,542.779
09:00:00 25/02/2002,537.697
09:00:00 26/02/2002,534.74
09:00:00 27/02/2002,532.323
09:00:00 28/02/2002,531.785
09:00:00 01/03/2002,531.395
09:00:00 02/03/2002,529.177
09:00:00 03/03/2002,526.34
09:00:00 04/03/2002,524.998
09:00:00 05/03/2002,522.542
09:00:00 06/03/2002,521.142
09:00:00 07/03/2002,518.823
09:00:00 08/03/2002,517.551
09:00:00 09/03/2002,513.231
09:00:00 10/03/2002,509.901
09:00:00 11/03/2002,505.755
09:00:00 12/03/2002,502.884
09:00:00 13/03/2002,501.783
09:00:00 14/03/2002,499.393